Location: Zagreb
(45.8000°N, 16.0000°E)
Time: 22:09:00
(UTC+02:00)

Vanguard 3 - All Passes

Search period start: 09 August 2022 00:00
Search period end: 19 August 2022 00:00
Orbit: 508 x 3258 km, 33.3° (Epoch: 09 August)

Date Brightness Start Highest point End Pass type
(mag) Time Alt. Az. Time Alt. Az. Time Alt. Az.
09 Aug - 02:44:52 10° SSW 02:47:13 14° S 02:49:19 10° SE visible
09 Aug - 04:56:19 10° SSW 04:57:47 12° S 04:59:16 10° SSE visible
10 Aug - 01:30:24 10° SSW 01:33:04 13° S 01:35:20 10° SE night (unlit)
10 Aug - 03:41:28 10° SW 03:43:49 15° S 03:45:56 10° SSE visible
11 Aug - 00:16:10 10° S 00:18:43 12° SSE 00:20:54 10° SE night (unlit)
11 Aug - 02:26:32 10° SW 02:29:47 17° S 02:32:27 10° SE night (unlit)
11 Aug - 04:39:07 10° SSW 04:40:18 11° SSW 04:41:28 10° S visible
12 Aug - 01:11:25 10° SW 01:15:36 17° S 01:18:49 10° SE night (unlit)
12 Aug - 03:23:35 10° SW 03:26:21 16° S 03:28:45 10° SSE visible
12 Aug - 23:56:20 10° SSW 00:01:10 17° SSE 00:04:51 10° SE night (unlit)
13 Aug - 02:08:10 10° SW 02:12:20 20° S 02:15:30 10° SE night (unlit)
13 Aug - 04:21:51 10° SSW 04:22:48 11° SSW 04:23:42 10° S visible
13 Aug - 22:41:40 10° S 22:46:27 14° SSE 22:50:15 10° SE visible
14 Aug - 00:52:33 10° SW 00:58:06 22° S 01:02:02 10° SE night (unlit)
14 Aug - 03:05:35 10° SW 03:08:52 17° SSW 03:11:35 10° SSE night (unlit)
14 Aug - 21:28:41 10° S 21:31:26 11° SSE 21:33:53 10° SE visible
14 Aug - 23:36:52 10° SW 23:43:35 21° S 23:48:16 10° ESE visible
15 Aug - 01:49:44 10° SW 01:54:50 23° S 01:58:31 10° SE night (unlit)
15 Aug - 04:04:24 10° SW 04:05:14 10° SSW 04:06:03 10° SSW visible
15 Aug - 22:21:25 10° SSW 22:28:44 19° SSE 22:34:00 10° ESE visible
16 Aug - 00:33:40 10° SW 00:40:33 26° S 00:45:09 10° SE visible
16 Aug - 02:47:29 10° WSW 02:51:22 18° SSW 02:54:24 10° SSE night (unlit)
16 Aug - 21:06:49 10° S 21:13:33 16° SSE 21:18:49 10° SE visible
16 Aug - 23:17:29 10° SW 23:25:55 26° S 23:31:28 10° ESE visible
17 Aug - 01:31:13 10° WSW 01:37:19 26° S 01:41:28 10° SE night (unlit)
17 Aug - 03:46:43 10° SW 03:47:39 10° SSW 03:48:30 10° SSW night (unlit)
17 Aug - 19:54:59 10° SSE 19:58:06 11° SSE 20:00:56 10° SE daylight
17 Aug - 22:01:27 10° SSW 22:10:55 24° SSE 22:17:20 10° ESE visible
18 Aug - 00:14:44 10° WSW 00:22:56 30° S 00:28:09 10° ESE visible
18 Aug - 02:29:14 10° WSW 02:33:48 19° SSW 02:37:13 10° SSE night (unlit)
18 Aug - 20:46:06 10° SSW 20:55:33 20° SSE 21:02:29 10° ESE visible
18 Aug - 22:58:06 10° SW 23:08:10 31° S 23:14:30 10° ESE visible
